Wetterdaten: Freitag, 16.02.2018
Datum Zeit Temp. A. Aussen2m Boden Feuchte A. Feuchte 2 Luftdruck Regen Wind Richtung Richtung Sonnenschein
16.02.2018 00:00 3,3 C 3,1 C 1,5 C 99 % 95 % 1015,9 hPa 0,0 l/m 1,2 km/h (1 Bft) W-NW 295 0 min
16.02.2018 00:05 3,2 C 3,1 C 1,5 C 99 % 94 % 1016,9 hPa 0,0 l/m 0,6 km/h (0 Bft) W-NW 300 0 min
16.02.2018 00:10 3,1 C 3,1 C 1,5 C 99 % 95 % 1016,9 hPa 0,0 l/m 1,2 km/h (1 Bft) NW 320 0 min
16.02.2018 00:15 3,1 C 2,9 C 1,3 C 99 % 94 % 1016,9 hPa 0,0 l/m 1,2 km/h (1 Bft) NW 305 0 min
16.02.2018 00:20 3,0 C 2,9 C 1,3 C 99 % 95 % 1016,9 hPa 0,0 l/m 2,4 km/h (1 Bft) SW 235 0 min
16.02.2018 00:25 2,8 C 2,8 C 1,3 C 99 % 95 % 1016,9 hPa 0,0 l/m 1,2 km/h (1 Bft) W-NW 295 0 min
16.02.2018 00:30 2,7 C 2,7 C 1,3 C 99 % 95 % 1016,9 hPa 0,0 l/m 0,6 km/h (0 Bft) W-NW 290 0 min
16.02.2018 00:35 2,7 C 2,7 C 1,3 C 99 % 94 % 1015,9 hPa 0,0 l/m 0,6 km/h (0 Bft) W-NW 295 0 min
16.02.2018 00:40 2,8 C 2,5 C 1,3 C 99 % 94 % 1015,9 hPa 0,0 l/m 0,6 km/h (0 Bft) W-NW 295 0 min
16.02.2018 00:45 2,8 C 2,3 C 1,3 C 99 % 94 % 1015,9 hPa 0,0 l/m 0,0 km/h (0 Bft) S-SW 205 0 min
16.02.2018 00:50 2,7 C 2,2 C 1,3 C 99 % 94 % 1016,9 hPa 0,0 l/m 0,0 km/h (0 Bft) W-SW 240 0 min
16.02.2018 00:55 2,7 C 2,1 C 1,3 C 99 % 94 % 1016,9 hPa 0,0 l/m 0,0 km/h (0 Bft) S-SO 160 0 min
16.02.2018 01:00 2,6 C 1,9 C 1,3 C 99 % 94 % 1016,9 hPa 0,0 l/m 0,6 km/h (0 Bft) S-SO 150 0 min
16.02.2018 01:05 2,4 C 1,8 C 1,3 C 99 % 94 % 1015,9 hPa 0,0 l/m 0,6 km/h (0 Bft) SO 135 0 min
16.02.2018 01:10 2,0 C 1,6 C 1,3 C 99 % 94 % 1015,9 hPa 0,0 l/m 0,0 km/h (0 Bft) SO 135 0 min
16.02.2018 01:15 1,9 C 1,5 C 1,3 C 99 % 94 % 1015,9 hPa 0,0 l/m 0,6 km/h (0 Bft) O-SO 115 0 min
16.02.2018 01:20 1,8 C 1,4 C 1,3 C 99 % 94 % 1016,9 hPa 0,0 l/m 1,2 km/h (1 Bft) O-SO 105 0 min
16.02.2018 01:25 1,6 C 1,2 C 1,3 C 99 % 94 % 1016,9 hPa 0,0 l/m 1,2 km/h (1 Bft) O-SO 120 0 min
16.02.2018 01:30 1,5 C 1,2 C 1,3 C 99 % 94 % 1016,9 hPa 0,0 l/m 0,6 km/h (0 Bft) SO 135 0 min
16.02.2018 01:35 1,6 C 1,1 C 1,3 C 99 % 94 % 1017,9 hPa 0,0 l/m 1,8 km/h (1 Bft) SO 140 0 min
16.02.2018 01:40 1,8 C 1,1 C 1,3 C 99 % 94 % 1017,9 hPa 0,0 l/m 1,8 km/h (1 Bft) SO 140 0 min
16.02.2018 01:45 1,7 C 1,1 C 1,3 C 99 % 94 % 1017,9 hPa 0,0 l/m 2,4 km/h (1 Bft) S-SO 155 0 min
16.02.2018 01:50 1,9 C 1,3 C 1,3 C 99 % 95 % 1017,9 hPa 0,0 l/m 3,6 km/h (1 Bft) S-SW 205 0 min
16.02.2018 01:55 2,2 C 1,4 C 1,3 C 99 % 95 % 1017,9 hPa 0,0 l/m 3,0 km/h (1 Bft) S 180 0 min
16.02.2018 02:00 2,0 C 1,5 C 1,3 C 99 % 95 % 1017,9 hPa 0,0 l/m 2,4 km/h (1 Bft) SO 140 0 min
16.02.2018 02:05 1,9 C 1,5 C 1,3 C 99 % 95 % 1017,9 hPa 0,0 l/m 1,8 km/h (1 Bft) SO 135 0 min
16.02.2018 02:10 1,9 C 1,6 C 1,3 C 99 % 95 % 1017,9 hPa 0,0 l/m 3,0 km/h (1 Bft) S-SO 160 0 min
16.02.2018 02:15 1,9 C 1,6 C 1,3 C 99 % 95 % 1017,9 hPa 0,0 l/m 3,0 km/h (1 Bft) S 185 0 min
16.02.2018 02:20 1,9 C 1,5 C 1,3 C 99 % 95 % 1016,9 hPa 0,0 l/m 2,4 km/h (1 Bft) S-SO 150 0 min
16.02.2018 02:25 1,7 C 1,5 C 1,3 C 99 % 95 % 1016,9 hPa 0,0 l/m 3,0 km/h (1 Bft) S-SO 150 0 min
16.02.2018 02:30 1,7 C 1,4 C 1,3 C 99 % 95 % 1016,9 hPa 0,0 l/m 3,0 km/h (1 Bft) SO 145 0 min
16.02.2018 02:35 1,5 C 1,3 C 1,3 C 99 % 95 % 1018,9 hPa 0,0 l/m 1,8 km/h (1 Bft) SO 145 0 min
16.02.2018 02:40 1,5 C 1,3 C 1,3 C 99 % 95 % 1018,9 hPa 0,0 l/m 1,8 km/h (1 Bft) S-SW 200 0 min
16.02.2018 02:45 1,6 C 1,3 C 1,3 C 99 % 95 % 1018,9 hPa 0,0 l/m 1,8 km/h (1 Bft) S 190 0 min
16.02.2018 02:50 1,6 C 1,4 C 1,3 C 99 % 95 % 1016,9 hPa 0,0 l/m 1,2 km/h (1 Bft) SW 225 0 min
16.02.2018 02:55 1,7 C 1,4 C 1,3 C 99 % 95 % 1016,9 hPa 0,0 l/m 2,4 km/h (1 Bft) SW 230 0 min
16.02.2018 03:00 1,6 C 1,4 C 0,8 C 99 % 95 % 1016,9 hPa 0,0 l/m 3,0 km/h (1 Bft) SW 230 0 min
16.02.2018 03:05 1,7 C 1,4 C 0,8 C 99 % 95 % 1017,9 hPa 0,0 l/m 3,6 km/h (1 Bft) W-SW 240 0 min
16.02.2018 03:10 1,7 C 1,4 C 0,8 C 99 % 95 % 1017,9 hPa 0,0 l/m 4,2 km/h (1 Bft) SW 220 0 min
16.02.2018 03:15 1,7 C 1,3 C 0,8 C 99 % 95 % 1017,9 hPa 0,0 l/m 5,4 km/h (2 Bft) W-SW 240 0 min
16.02.2018 03:20 1,7 C 1,3 C 0,8 C 99 % 95 % 1018,9 hPa 0,0 l/m 7,3 km/h (2 Bft) SW 235 0 min
16.02.2018 03:25 1,6 C 1,2 C 0,8 C 98 % 95 % 1018,9 hPa 0,0 l/m 6,1 km/h (2 Bft) W 270 0 min
16.02.2018 03:30 1,8 C 1,3 C 0,8 C 98 % 95 % 1018,9 hPa 0,0 l/m 6,7 km/h (2 Bft) SW 225 0 min
16.02.2018 03:35 1,8 C 1,3 C 0,8 C 98 % 95 % 1018,9 hPa 0,0 l/m 6,7 km/h (2 Bft) SW 230 0 min
16.02.2018 03:40 1,8 C 1,3 C 0,8 C 98 % 95 % 1018,9 hPa 0,0 l/m 6,1 km/h (2 Bft) W-SW 250 0 min
16.02.2018 03:45 1,8 C 1,3 C 0,8 C 98 % 95 % 1018,9 hPa 0,0 l/m 7,3 km/h (2 Bft) SW 225 0 min
16.02.2018 03:50 1,8 C 1,2 C 0,6 C 98 % 95 % 1017,9 hPa 0,0 l/m 7,3 km/h (2 Bft) SW 220 0 min
16.02.2018 03:55 1,9 C 1,2 C 0,6 C 99 % 95 % 1017,9 hPa 0,0 l/m 7,9 km/h (2 Bft) W-SW 245 0 min
16.02.2018 04:00 1,7 C 1,3 C 0,6 C 98 % 95 % 1017,9 hPa 0,0 l/m 6,7 km/h (2 Bft) W-SW 250 0 min
16.02.2018 04:05 1,8 C 1,3 C 0,6 C 98 % 95 % 1018,9 hPa 0,0 l/m 6,7 km/h (2 Bft) SW 230 0 min
16.02.2018 04:10 1,7 C 1,2 C 0,6 C 99 % 95 % 1018,9 hPa 0,0 l/m 4,8 km/h (1 Bft) SW 215 0 min
16.02.2018 04:15 1,7 C 1,2 C 0,6 C 99 % 95 % 1018,9 hPa 0,0 l/m 3,0 km/h (1 Bft) W-SW 240 0 min
16.02.2018 04:20 1,8 C 1,1 C 0,6 C 99 % 94 % 1018,9 hPa 0,0 l/m 5,4 km/h (2 Bft) W-SW 240 0 min
16.02.2018 04:25 1,8 C 1,2 C 0,6 C 99 % 95 % 1018,9 hPa 0,0 l/m 6,1 km/h (2 Bft) SW 220 0 min
16.02.2018 04:30 1,8 C 1,3 C 0,6 C 99 % 95 % 1018,9 hPa 0,0 l/m 6,1 km/h (2 Bft) W-SW 240 0 min
16.02.2018 04:35 1,8 C 1,3 C 0,6 C 99 % 95 % 1018,9 hPa 0,0 l/m 5,4 km/h (2 Bft) W-SW 250 0 min
16.02.2018 04:40 1,7 C 1,3 C 0,6 C 98 % 95 % 1018,9 hPa 0,0 l/m 4,2 km/h (1 Bft) W-NW 285 0 min
16.02.2018 04:45 1,8 C 1,3 C 0,6 C 99 % 95 % 1018,9 hPa 0,0 l/m 3,6 km/h (1 Bft) S-SW 210 0 min
16.02.2018 04:50 1,7 C 1,3 C 0,4 C 98 % 95 % 1018,9 hPa 0,0 l/m 3,6 km/h (1 Bft) W 270 0 min
16.02.2018 04:55 1,7 C 1,2 C 0,4 C 98 % 95 % 1018,9 hPa 0,0 l/m 4,2 km/h (1 Bft) W-NW 300 0 min
16.02.2018 05:00 1,6 C 1,2 C 0,4 C 98 % 95 % 1018,9 hPa 0,0 l/m 2,4 km/h (1 Bft) S-SW 200 0 min
16.02.2018 05:05 1,7 C 1,2 C 0,4 C 99 % 95 % 1018,9 hPa 0,0 l/m 3,6 km/h (1 Bft) SW 220 0 min
16.02.2018 05:10 1,6 C 1,2 C 0,4 C 98 % 95 % 1018,9 hPa 0,0 l/m 3,0 km/h (1 Bft) W 260 0 min
16.02.2018 05:15 1,6 C 1,1 C 0,4 C 98 % 94 % 1018,9 hPa 0,0 l/m 3,0 km/h (1 Bft) W-SW 245 0 min
16.02.2018 05:20 1,6 C 1,1 C 0,4 C 99 % 94 % 1018,9 hPa 0,0 l/m 3,6 km/h (1 Bft) SW 220 0 min
16.02.2018 05:25 1,7 C 1,1 C 0,4 C 99 % 94 % 1018,9 hPa 0,0 l/m 6,7 km/h (2 Bft) W-SW 240 0 min
16.02.2018 05:30 1,7 C 1,1 C 0,4 C 98 % 94 % 1018,9 hPa 0,0 l/m 4,8 km/h (1 Bft) W-SW 245 0 min
16.02.2018 05:35 1,6 C 1,1 C 0,4 C 98 % 94 % 1018,9 hPa 0,0 l/m 5,4 km/h (2 Bft) SW 235 0 min
16.02.2018 05:40 1,7 C 1,1 C 0,4 C 99 % 94 % 1018,9 hPa 0,0 l/m 3,6 km/h (1 Bft) W-SW 250 0 min
16.02.2018 05:45 1,7 C 1,1 C 0,4 C 99 % 94 % 1018,9 hPa 0,0 l/m 6,7 km/h (2 Bft) SW 230 0 min
16.02.2018 05:50 1,7 C 1,1 C 0,4 C 99 % 94 % 1019,9 hPa 0,0 l/m 6,1 km/h (2 Bft) SW 230 0 min
16.02.2018 05:55 1,6 C 1,1 C 0,4 C 99 % 94 % 1019,9 hPa 0,0 l/m 6,1 km/h (2 Bft) SW 230 0 min
16.02.2018 06:00 1,6 C 1,0 C 0,4 C 99 % 94 % 1019,9 hPa 0,0 l/m 6,1 km/h (2 Bft) SW 215 0 min
16.02.2018 06:05 1,4 C 1,0 C 0,4 C 99 % 94 % 1019,9 hPa 0,0 l/m 4,8 km/h (1 Bft) SW 230 0 min
16.02.2018 06:10 1,4 C 1,1 C 0,4 C 99 % 95 % 1019,9 hPa 0,0 l/m 7,3 km/h (2 Bft) W-SW 240 0 min
16.02.2018 06:15 1,6 C 1,1 C 0,4 C 99 % 95 % 1019,9 hPa 0,0 l/m 8,5 km/h (2 Bft) S-SW 205 0 min
16.02.2018 06:20 1,6 C 1,1 C 0,4 C 99 % 95 % 1019,9 hPa 0,0 l/m 6,7 km/h (2 Bft) W-SW 245 0 min
16.02.2018 06:25 1,7 C 1,1 C 0,4 C 99 % 95 % 1019,9 hPa 0,0 l/m 6,7 km/h (2 Bft) SW 235 0 min
16.02.2018 06:30 1,6 C 1,1 C 0,4 C 99 % 95 % 1019,9 hPa 0,0 l/m 6,7 km/h (2 Bft) W-SW 250 0 min
16.02.2018 06:35 1,6 C 1,1 C 0,2 C 99 % 95 % 1020,9 hPa 0,0 l/m 6,7 km/h (2 Bft) SW 230 0 min
16.02.2018 06:40 1,5 C 1,1 C 0,2 C 99 % 95 % 1020,9 hPa 0,0 l/m 7,3 km/h (2 Bft) SW 230 0 min
16.02.2018 06:45 1,5 C 1,0 C 0,2 C 99 % 95 % 1020,9 hPa 0,0 l/m 7,3 km/h (2 Bft) SW 225 0 min
16.02.2018 06:50 1,4 C 1,0 C 0,2 C 99 % 95 % 1020,9 hPa 0,0 l/m 6,1 km/h (2 Bft) SW 220 0 min
16.02.2018 06:55 1,4 C 1,0 C 0,2 C 99 % 95 % 1020,9 hPa 0,0 l/m 6,1 km/h (2 Bft) W-SW 250 0 min
16.02.2018 07:00 1,6 C 1,0 C 0,2 C 99 % 95 % 1020,9 hPa 0,0 l/m 9,7 km/h (2 Bft) W-SW 240 0 min
16.02.2018 07:05 1,6 C 1,1 C 0,2 C 99 % 95 % 1020,9 hPa 0,0 l/m 7,9 km/h (2 Bft) SW 235 0 min
16.02.2018 07:10 1,6 C 1,1 C 0,2 C 99 % 95 % 1020,9 hPa 0,0 l/m 7,9 km/h (2 Bft) W-SW 240 0 min
16.02.2018 07:15 1,5 C 1,1 C 0,2 C 99 % 95 % 1020,9 hPa 0,0 l/m 7,3 km/h (2 Bft) SW 235 0 min
16.02.2018 07:20 1,4 C 1,0 C 0,2 C 99 % 95 % 1021,9 hPa 0,0 l/m 6,7 km/h (2 Bft) W-SW 245 0 min
16.02.2018 07:25 1,3 C 1,0 C 0,2 C 99 % 95 % 1021,9 hPa 0,0 l/m 5,4 km/h (2 Bft) W-SW 245 0 min
16.02.2018 07:30 1,3 C 1,0 C 0,2 C 99 % 95 % 1021,9 hPa 0,0 l/m 5,4 km/h (2 Bft) W-SW 250 0 min
16.02.2018 07:35 1,4 C 0,9 C 0,2 C 99 % 95 % 1020,9 hPa 0,0 l/m 6,7 km/h (2 Bft) SW 220 0 min
16.02.2018 07:40 1,3 C 1,0 C 0,2 C 99 % 95 % 1020,9 hPa 0,0 l/m 8,5 km/h (2 Bft) SW 215 0 min
16.02.2018 07:45 1,4 C 1,0 C 0,2 C 99 % 95 % 1020,9 hPa 0,0 l/m 7,3 km/h (2 Bft) W-SW 255 0 min
16.02.2018 07:50 1,4 C 1,1 C 0,2 C 99 % 95 % 1021,9 hPa 0,0 l/m 7,9 km/h (2 Bft) SW 225 0 min
16.02.2018 07:55 1,6 C 1,1 C 0,2 C 99 % 95 % 1021,9 hPa 0,3 l/m 10,9 km/h (2 Bft) SW 220 0 min
16.02.2018 08:00 1,5 C 1,2 C 0,2 C 98 % 95 % 1021,9 hPa 0,0 l/m 10,9 km/h (2 Bft) W-SW 245 0 min
16.02.2018 08:05 1,6 C 1,2 C 0,2 C 98 % 95 % 1020,9 hPa 0,0 l/m 16,9 km/h (3 Bft) SW 220 0 min
16.02.2018 08:10 1,7 C 1,3 C 0,2 C 98 % 95 % 1020,9 hPa 0,0 l/m 12,7 km/h (3 Bft) SW 220 0 min
16.02.2018 08:15 1,6 C 1,3 C 0,2 C 98 % 95 % 1020,9 hPa 0,0 l/m 12,7 km/h (3 Bft) SW 235 0 min
16.02.2018 08:20 1,6 C 1,3 C 0,2 C 98 % 95 % 1021,9 hPa 0,0 l/m 10,3 km/h (2 Bft) SW 235 0 min
16.02.2018 08:25 1,6 C 1,3 C 0,2 C 98 % 95 % 1021,9 hPa 0,0 l/m 10,3 km/h (2 Bft) SW 235 0 min
16.02.2018 08:30 1,6 C 1,3 C 0,2 C 98 % 95 % 1021,9 hPa 0,0 l/m 11,5 km/h (2 Bft) W-SW 240 0 min
16.02.2018 08:35 1,5 C 1,3 C 0,2 C 98 % 95 % 1021,9 hPa 0,0 l/m 6,1 km/h (2 Bft) SW 230 0 min
16.02.2018 08:40 1,4 C 1,2 C 0,2 C 98 % 95 % 1021,9 hPa 0,0 l/m 8,5 km/h (2 Bft) SW 230 0 min
16.02.2018 08:45 1,4 C 1,1 C 0,2 C 98 % 94 % 1021,9 hPa 0,0 l/m 9,7 km/h (2 Bft) W-SW 240 0 min
16.02.2018 08:50 1,5 C 1,2 C 0,4 C 98 % 95 % 1022,9 hPa 0,0 l/m 9,7 km/h (2 Bft) W-SW 245 0 min
16.02.2018 08:55 1,5 C 1,3 C 0,4 C 98 % 95 % 1022,9 hPa 0,0 l/m 9,7 km/h (2 Bft) W-SW 245 0 min
16.02.2018 09:00 1,7 C 1,3 C 0,4 C 97 % 95 % 1022,9 hPa 0,0 l/m 11,5 km/h (2 Bft) SW 225 1 min
16.02.2018 09:05 1,8 C 1,3 C 0,4 C 97 % 95 % 1021,9 hPa 0,0 l/m 12,7 km/h (3 Bft) W-SW 245 0 min
16.02.2018 09:10 1,8 C 1,4 C 0,4 C 97 % 95 % 1021,9 hPa 0,0 l/m 12,1 km/h (2 Bft) W-SW 240 0 min
16.02.2018 09:15 1,7 C 1,4 C 0,4 C 97 % 95 % 1021,9 hPa 0,0 l/m 10,3 km/h (2 Bft) SW 225 0 min
16.02.2018 09:20 1,7 C 1,5 C 0,4 C 97 % 95 % 1022,9 hPa 0,0 l/m 11,5 km/h (2 Bft) SW 235 0 min
16.02.2018 09:25 1,8 C 1,5 C 0,4 C 97 % 94 % 1022,9 hPa 0,0 l/m 10,9 km/h (2 Bft) SW 235 0 min
16.02.2018 09:30 1,9 C 1,6 C 0,4 C 97 % 95 % 1022,9 hPa 0,0 l/m 10,3 km/h (2 Bft) SW 225 5 min
16.02.2018 09:35 2,1 C 1,8 C 0,4 C 96 % 94 % 1022,9 hPa 0,0 l/m 12,1 km/h (2 Bft) SW 215 5 min
16.02.2018 09:40 2,3 C 1,8 C 0,4 C 96 % 94 % 1022,9 hPa 0,0 l/m 10,3 km/h (2 Bft) SW 225 5 min
16.02.2018 09:45 2,5 C 1,8 C 0,4 C 95 % 94 % 1022,9 hPa 0,0 l/m 10,9 km/h (2 Bft) W-SW 240 5 min
16.02.2018 09:50 2,6 C 2,0 C 0,4 C 95 % 94 % 1022,9 hPa 0,0 l/m 8,5 km/h (2 Bft) SW 235 4 min
16.02.2018 09:55 2,8 C 2,1 C 0,4 C 95 % 94 % 1022,9 hPa 0,0 l/m 8,5 km/h (2 Bft) SW 220 6 min
16.02.2018 10:00 3,1 C 2,3 C 0,4 C 95 % 94 % 1022,9 hPa 0,0 l/m 10,3 km/h (2 Bft) W 270 4 min
16.02.2018 10:05 3,4 C 2,4 C 0,4 C 94 % 94 % 1022,9 hPa 0,0 l/m 11,5 km/h (2 Bft) W-SW 245 6 min
16.02.2018 10:10 3,5 C 2,7 C 0,4 C 94 % 94 % 1022,9 hPa 0,0 l/m 8,5 km/h (2 Bft) W-SW 240 5 min
16.02.2018 10:15 3,8 C 2,9 C 0,6 C 93 % 94 % 1022,9 hPa 0,0 l/m 11,5 km/h (2 Bft) SW 235 5 min
16.02.2018 10:20 4,0 C 3,1 C 0,6 C 93 % 94 % 1022,9 hPa 0,0 l/m 14,5 km/h (3 Bft) SW 230 5 min
16.02.2018 10:25 4,2 C 3,3 C 0,6 C 91 % 93 % 1022,9 hPa 0,0 l/m 14,5 km/h (3 Bft) W-SW 240 5 min
16.02.2018 10:30 4,3 C 3,4 C 0,8 C 91 % 93 % 1022,9 hPa 0,0 l/m 11,5 km/h (2 Bft) SW 220 5 min
16.02.2018 10:35 4,4 C 3,6 C 0,8 C 90 % 92 % 1023,9 hPa 0,0 l/m 15,7 km/h (3 Bft) SW 235 6 min
16.02.2018 10:40 4,6 C 3,7 C 1,1 C 90 % 92 % 1023,9 hPa 0,0 l/m 12,1 km/h (2 Bft) W-NW 285 5 min
16.02.2018 10:45 4,8 C 3,8 C 1,1 C 89 % 91 % 1023,9 hPa 0,0 l/m 14,5 km/h (3 Bft) S 190 4 min
16.02.2018 10:50 4,9 C 4,0 C 1,1 C 88 % 90 % 1023,9 hPa 0,0 l/m 11,5 km/h (2 Bft) W-NW 295 6 min
16.02.2018 10:55 5,1 C 4,1 C 1,1 C 87 % 90 % 1023,9 hPa 0,0 l/m 13,3 km/h (3 Bft) NW 310 4 min
16.02.2018 11:00 5,2 C 4,2 C 1,3 C 87 % 89 % 1023,9 hPa 0,0 l/m 9,7 km/h (2 Bft) N-NW 330 6 min
16.02.2018 11:05 5,2 C 4,4 C 1,5 C 86 % 89 % 1023,9 hPa 0,0 l/m 15,7 km/h (3 Bft) W-SW 240 5 min
16.02.2018 11:10 5,2 C 4,4 C 1,5 C 86 % 88 % 1023,9 hPa 0,0 l/m 15,7 km/h (3 Bft) W-SW 240 0 min
16.02.2018 11:15 5,5 C 4,6 C 1,5 C 86 % 88 % 1023,9 hPa 0,0 l/m 15,7 km/h (3 Bft) N 350 7 min
16.02.2018 11:20 5,5 C 4,7 C 1,5 C 86 % 88 % 1024,9 hPa 0,0 l/m 10,9 km/h (2 Bft) W-SW 245 5 min
16.02.2018 11:25 5,6 C 4,8 C 1,5 C 85 % 87 % 1024,9 hPa 0,0 l/m 20,6 km/h (4 Bft) SW 230 6 min
16.02.2018 11:30 5,9 C 5,0 C 1,5 C 86 % 87 % 1024,9 hPa 0,0 l/m 11,5 km/h (2 Bft) W-SW 245 6 min
16.02.2018 11:35 5,8 C 5,0 C 1,5 C 84 % 86 % 1023,9 hPa 0,0 l/m 15,1 km/h (3 Bft) NW 315 6 min
16.02.2018 11:40 5,8 C 5,1 C 1,5 C 84 % 86 % 1023,9 hPa 0,0 l/m 15,1 km/h (3 Bft) NW 315 0 min
16.02.2018 11:45 6,0 C 5,1 C 1,5 C 84 % 85 % 1023,9 hPa 0,0 l/m 16,9 km/h (3 Bft) W-NW 295 7 min
16.02.2018 11:50 6,0 C 5,3 C 1,5 C 83 % 86 % 1023,9 hPa 0,0 l/m 15,7 km/h (3 Bft) NW 315 7 min
16.02.2018 11:55 6,1 C 5,4 C 1,5 C 83 % 86 % 1023,9 hPa 0,0 l/m 13,3 km/h (3 Bft) W-NW 290 6 min
16.02.2018 12:00 6,1 C 5,5 C 1,9 C 83 % 86 % 1023,9 hPa 0,0 l/m 13,3 km/h (3 Bft) W-NW 290 0 min
16.02.2018 12:05 6,5 C 5,7 C 1,9 C 81 % 84 % 1023,9 hPa 0,0 l/m 11,5 km/h (2 Bft) W 260 10 min
16.02.2018 12:10 6,5 C 5,8 C 1,9 C 80 % 84 % 1023,9 hPa 0,0 l/m 12,7 km/h (3 Bft) W-NW 295 3 min
16.02.2018 12:15 6,6 C 5,8 C 2,1 C 80 % 82 % 1023,9 hPa 0,0 l/m 10,9 km/h (2 Bft) W-SW 250 6 min
16.02.2018 12:20 6,6 C 5,8 C 2,1 C 80 % 82 % 1023,9 hPa 0,0 l/m 10,9 km/h (2 Bft) W-SW 250 0 min
16.02.2018 12:25 6,4 C 5,9 C 2,1 C 79 % 82 % 1023,9 hPa 0,0 l/m 20,6 km/h (4 Bft) W 270 10 min
16.02.2018 12:30 6,6 C 6,0 C 2,1 C 78 % 81 % 1023,9 hPa 0,0 l/m 26,0 km/h (4 Bft) NW 305 6 min
16.02.2018 12:35 6,6 C 6,1 C 2,1 C 79 % 81 % 1023,9 hPa 0,0 l/m 19,4 km/h (3 Bft) SW 230 2 min
16.02.2018 12:40 6,6 C 6,2 C 2,1 C 79 % 81 % 1023,9 hPa 0,0 l/m 23,0 km/h (4 Bft) NW 315 5 min
16.02.2018 12:45 6,6 C 6,2 C 2,3 C 79 % 78 % 1023,9 hPa 0,0 l/m 23,0 km/h (4 Bft) NW 315 0 min
16.02.2018 12:50 7,1 C 6,4 C 2,3 C 77 % 80 % 1023,9 hPa 0,0 l/m 15,7 km/h (3 Bft) W 265 12 min
16.02.2018 12:55 7,1 C 6,4 C 2,3 C 75 % 79 % 1023,9 hPa 0,0 l/m 15,7 km/h (3 Bft) W 260 3 min
16.02.2018 13:00 7,1 C 6,5 C 2,3 C 74 % 78 % 1023,9 hPa 0,0 l/m 13,9 km/h (3 Bft) S 180 7 min
16.02.2018 13:05 7,1 C 6,6 C 2,3 C 74 % 79 % 1023,9 hPa 0,0 l/m 16,9 km/h (3 Bft) N-NO 30 3 min
16.02.2018 13:10 7,4 C 6,7 C 2,3 C 74 % 78 % 1023,9 hPa 0,0 l/m 10,9 km/h (2 Bft) W-NW 290 5 min
16.02.2018 13:15 7,4 C 6,7 C 2,3 C 70 % 73 % 1023,9 hPa 0,0 l/m 16,3 km/h (3 Bft) W 275 6 min
16.02.2018 13:20 7,3 C 6,7 C 2,5 C 70 % 75 % 1024,9 hPa 0,0 l/m 22,4 km/h (4 Bft) NW 315 2 min
16.02.2018 13:25 7,3 C 6,8 C 2,5 C 72 % 75 % 1024,9 hPa 0,0 l/m 16,3 km/h (3 Bft) N-NW 335 8 min
16.02.2018 13:30 7,5 C 6,9 C 2,5 C 72 % 73 % 1024,9 hPa 0,0 l/m 16,9 km/h (3 Bft) W-NW 300 2 min
16.02.2018 13:35 7,9 C 7,0 C 2,5 C 69 % 73 % 1023,9 hPa 0,0 l/m 14,5 km/h (3 Bft) N-NW 345 8 min
16.02.2018 13:40 7,8 C 7,1 C 2,5 C 69 % 73 % 1023,9 hPa 0,0 l/m 20,0 km/h (4 Bft) N-NW 330 5 min
16.02.2018 13:45 7,9 C 7,1 C 2,5 C 68 % 72 % 1023,9 hPa 0,0 l/m 15,1 km/h (3 Bft) S 180 5 min
16.02.2018 13:50 8,0 C 7,1 C 2,5 C 67 % 72 % 1024,9 hPa 0,0 l/m 12,1 km/h (2 Bft) W-NW 290 5 min
16.02.2018 13:55 8,1 C 7,2 C 2,5 C 66 % 71 % 1024,9 hPa 0,0 l/m 12,7 km/h (3 Bft) NW 320 5 min
16.02.2018 14:00 7,6 C 7,1 C 2,5 C 66 % 71 % 1024,9 hPa 0,0 l/m 13,3 km/h (3 Bft) S 185 5 min
16.02.2018 14:05 7,6 C 7,0 C 2,5 C 66 % 70 % 1023,9 hPa 0,0 l/m 15,7 km/h (3 Bft) NW 305 5 min
16.02.2018 14:10 8,0 C 7,2 C 2,7 C 67 % 71 % 1023,9 hPa 0,0 l/m 16,3 km/h (3 Bft) SW 235 5 min
16.02.2018 14:15 8,0 C 7,3 C 2,7 C 65 % 70 % 1023,9 hPa 0,0 l/m 21,2 km/h (4 Bft) W 275 5 min
16.02.2018 14:20 7,9 C 7,3 C 2,7 C 64 % 69 % 1023,9 hPa 0,0 l/m 20,0 km/h (4 Bft) NW 310 4 min
16.02.2018 14:25 7,5 C 7,1 C 2,7 C 64 % 68 % 1023,9 hPa 0,0 l/m 17,6 km/h (3 Bft) NW 310 5 min
16.02.2018 14:30 7,8 C 7,3 C 2,7 C 65 % 69 % 1023,9 hPa 0,0 l/m 16,9 km/h (3 Bft) W-NW 290 6 min
16.02.2018 14:35 7,7 C 7,4 C 2,7 C 63 % 67 % 1023,9 hPa 0,0 l/m 19,4 km/h (3 Bft) W-SW 240 5 min
16.02.2018 14:40 8,1 C 7,5 C 2,9 C 64 % 70 % 1023,9 hPa 0,0 l/m 16,3 km/h (3 Bft) W 265 4 min
16.02.2018 14:45 8,1 C 7,3 C 2,9 C 64 % 67 % 1023,9 hPa 0,0 l/m 16,3 km/h (3 Bft) W 265 0 min
16.02.2018 14:50 7,8 C 7,4 C 2,9 C 63 % 67 % 1023,9 hPa 0,0 l/m 20,6 km/h (4 Bft) W 265 11 min
16.02.2018 14:55 7,9 C 7,6 C 2,9 C 62 % 67 % 1023,9 hPa 0,0 l/m 21,2 km/h (4 Bft) W-NW 290 6 min
16.02.2018 15:00 7,9 C 7,6 C 2,9 C 62 % 67 % 1023,9 hPa 0,0 l/m 21,2 km/h (4 Bft) W-NW 290 0 min
16.02.2018 15:05 7,9 C 7,4 C 2,9 C 63 % 67 % 1023,9 hPa 0,0 l/m 12,1 km/h (2 Bft) SW 225 8 min
16.02.2018 15:10 8,3 C 7,5 C 2,9 C 61 % 65 % 1023,9 hPa 0,0 l/m 11,5 km/h (2 Bft) S-SW 205 5 min
16.02.2018 15:15 8,3 C 7,6 C 2,9 C 60 % 65 % 1023,9 hPa 0,0 l/m 11,5 km/h (2 Bft) W 260 3 min
16.02.2018 15:20 8,1 C 7,6 C 2,9 C 61 % 66 % 1023,9 hPa 0,0 l/m 16,9 km/h (3 Bft) W-NW 295 5 min
16.02.2018 15:25 8,0 C 7,6 C 2,9 C 62 % 64 % 1023,9 hPa 0,0 l/m 19,4 km/h (3 Bft) W 275 5 min
16.02.2018 15:30 8,2 C 7,6 C 2,9 C 62 % 66 % 1023,9 hPa 0,0 l/m 15,1 km/h (3 Bft) W 280 5 min
16.02.2018 15:35 8,2 C 7,6 C 2,9 C 59 % 63 % 1023,9 hPa 0,0 l/m 10,9 km/h (2 Bft) W-NW 285 7 min
16.02.2018 15:40 8,3 C 7,7 C 2,9 C 60 % 65 % 1023,9 hPa 0,0 l/m 13,3 km/h (3 Bft) NW 325 3 min
16.02.2018 15:45 8,3 C 7,7 C 2,9 C 60 % 66 % 1023,9 hPa 0,0 l/m 12,7 km/h (3 Bft) SW 225 5 min
16.02.2018 15:50 8,4 C 7,6 C 2,9 C 61 % 64 % 1023,9 hPa 0,0 l/m 22,4 km/h (4 Bft) NW 325 5 min
16.02.2018 15:55 8,2 C 7,6 C 3,1 C 58 % 64 % 1023,9 hPa 0,0 l/m 11,5 km/h (2 Bft) W-NW 300 8 min
16.02.2018 16:00 8,3 C 7,6 C 3,1 C 58 % 63 % 1023,9 hPa 0,0 l/m 12,7 km/h (3 Bft) W-NW 300 2 min
16.02.2018 16:05 7,8 C 7,4 C 3,1 C 58 % 62 % 1023,9 hPa 0,0 l/m 12,1 km/h (2 Bft) W-NW 285 3 min
16.02.2018 16:10 7,8 C 7,3 C 3,1 C 58 % 64 % 1023,9 hPa 0,0 l/m 12,1 km/h (2 Bft) W-NW 285 0 min
16.02.2018 16:15 8,0 C 7,3 C 3,1 C 60 % 65 % 1023,9 hPa 0,0 l/m 8,5 km/h (2 Bft) W 260 10 min
16.02.2018 16:20 8,0 C 7,3 C 3,1 C 61 % 66 % 1023,9 hPa 0,0 l/m 10,9 km/h (2 Bft) W 275 5 min
16.02.2018 16:25 8,1 C 7,3 C 3,1 C 59 % 64 % 1023,9 hPa 0,0 l/m 7,3 km/h (2 Bft) NW 315 5 min
16.02.2018 16:30 8,3 C 7,3 C 3,1 C 59 % 65 % 1023,9 hPa 0,0 l/m 4,8 km/h (1 Bft) S-SO 160 5 min
16.02.2018 16:35 8,3 C 7,4 C 3,1 C 59 % 65 % 1023,9 hPa 0,0 l/m 8,5 km/h (2 Bft) W-NW 290 5 min
16.02.2018 16:40 8,1 C 7,4 C 3,1 C 59 % 65 % 1023,9 hPa 0,0 l/m 11,5 km/h (2 Bft) N-NW 340 5 min
16.02.2018 16:45 8,0 C 7,3 C 3,1 C 60 % 65 % 1023,9 hPa 0,0 l/m 10,9 km/h (2 Bft) W-NW 290 5 min
16.02.2018 16:50 7,9 C 7,4 C 3,1 C 59 % 65 % 1023,9 hPa 0,0 l/m 8,5 km/h (2 Bft) W-NW 295 5 min
16.02.2018 16:55 7,7 C 7,2 C 3,1 C 60 % 65 % 1023,9 hPa 0,0 l/m 8,5 km/h (2 Bft) W-NW 290 5 min
16.02.2018 17:00 7,6 C 7,1 C 3,1 C 60 % 64 % 1023,9 hPa 0,0 l/m 7,9 km/h (2 Bft) W-NW 300 2 min
16.02.2018 17:05 7,3 C 6,9 C 2,9 C 60 % 65 % 1023,9 hPa 0,0 l/m 8,5 km/h (2 Bft) W 280 0 min
16.02.2018 17:10 7,1 C 6,7 C 2,9 C 62 % 66 % 1023,9 hPa 0,0 l/m 9,7 km/h (2 Bft) NW 325 5 min
16.02.2018 17:15 7,0 C 6,5 C 2,9 C 62 % 67 % 1023,9 hPa 0,0 l/m 10,9 km/h (2 Bft) W 265 3 min
16.02.2018 17:20 6,9 C 6,4 C 2,9 C 62 % 67 % 1023,9 hPa 0,0 l/m 10,3 km/h (2 Bft) SW 235 7 min
16.02.2018 17:25 6,8 C 6,3 C 2,9 C 62 % 67 % 1023,9 hPa 0,0 l/m 6,1 km/h (2 Bft) W 260 1 min
16.02.2018 17:30 6,7 C 6,2 C 2,9 C 62 % 67 % 1023,9 hPa 0,0 l/m 4,8 km/h (1 Bft) W-NW 295 0 min
16.02.2018 17:35 6,4 C 6,1 C 2,7 C 64 % 67 % 1024,9 hPa 0,0 l/m 4,2 km/h (1 Bft) N-NW 330 0 min
16.02.2018 17:40 6,2 C 5,9 C 2,7 C 65 % 68 % 1024,9 hPa 0,0 l/m 1,8 km/h (1 Bft) S 180 0 min
16.02.2018 17:45 5,9 C 5,8 C 2,7 C 66 % 68 % 1024,9 hPa 0,0 l/m 1,8 km/h (1 Bft) W 260 0 min
16.02.2018 17:50 5,8 C 5,6 C 2,7 C 66 % 69 % 1024,9 hPa 0,0 l/m 1,8 km/h (1 Bft) NW 310 0 min
16.02.2018 17:55 5,5 C 5,5 C 2,5 C 67 % 69 % 1024,9 hPa 0,0 l/m 1,2 km/h (1 Bft) W-NW 300 0 min
16.02.2018 18:00 5,4 C 5,4 C 2,5 C 67 % 69 % 1024,9 hPa 0,0 l/m 0,0 km/h (0 Bft) SW 230 0 min
16.02.2018 18:05 5,4 C 5,1 C 2,5 C 67 % 70 % 1024,9 hPa 0,0 l/m 0,6 km/h (0 Bft) W-SW 240 0 min
16.02.2018 18:10 5,3 C 5,0 C 2,5 C 68 % 70 % 1024,9 hPa 0,0 l/m 0,6 km/h (0 Bft) SW 230 0 min
16.02.2018 18:15 5,3 C 4,8 C 2,5 C 68 % 71 % 1024,9 hPa 0,0 l/m 0,0 km/h (0 Bft) W-NW 290 0 min
16.02.2018 18:20 5,1 C 4,7 C 2,3 C 68 % 71 % 1024,9 hPa 0,0 l/m 0,0 km/h (0 Bft) W-SW 250 0 min
16.02.2018 18:25 5,0 C 4,6 C 2,1 C 68 % 71 % 1024,9 hPa 0,0 l/m 0,0 km/h (0 Bft) W 260 0 min
16.02.2018 18:30 5,0 C 4,4 C 2,1 C 68 % 71 % 1024,9 hPa 0,0 l/m 0,0 km/h (0 Bft) S 175 0 min
16.02.2018 18:35 5,1 C 4,3 C 2,1 C 69 % 73 % 1024,9 hPa 0,0 l/m 0,0 km/h (0 Bft) SO 125 0 min
16.02.2018 18:40 5,1 C 4,4 C 2,1 C 69 % 73 % 1024,9 hPa 0,0 l/m 0,0 km/h (0 Bft) O-SO 110 0 min
16.02.2018 18:45 5,0 C 4,4 C 2,1 C 69 % 73 % 1024,9 hPa 0,0 l/m 0,0 km/h (0 Bft) O 90 0 min
16.02.2018 18:50 4,9 C 4,4 C 2,1 C 70 % 73 % 1023,9 hPa 0,0 l/m 0,6 km/h (0 Bft) O-SO 115 0 min
16.02.2018 18:55 4,8 C 4,2 C 2,1 C 70 % 73 % 1023,9 hPa 0,0 l/m 0,0 km/h (0 Bft) O-SO 110 0 min
16.02.2018 19:00 4,6 C 4,2 C 2,1 C 71 % 74 % 1023,9 hPa 0,0 l/m 0,0 km/h (0 Bft) S-SO 150 0 min
16.02.2018 19:05 4,5 C 4,0 C 1,9 C 71 % 74 % 1023,9 hPa 0,0 l/m 0,0 km/h (0 Bft) S-SO 160 0 min
16.02.2018 19:10 4,5 C 4,1 C 1,9 C 71 % 74 % 1023,9 hPa 0,0 l/m 0,0 km/h (0 Bft) S-SO 150 0 min
16.02.2018 19:15 4,5 C 3,9 C 1,9 C 71 % 74 % 1023,9 hPa 0,0 l/m 0,0 km/h (0 Bft) S-SO 155 0 min
16.02.2018 19:20 4,5 C 3,8 C 1,9 C 71 % 75 % 1024,9 hPa 0,0 l/m 0,0 km/h (0 Bft) S-SO 165 0 min
16.02.2018 19:25 4,5 C 3,8 C 1,9 C 72 % 75 % 1024,9 hPa 0,0 l/m 0,0 km/h (0 Bft) SO 145 0 min
16.02.2018 19:30 4,4 C 3,8 C 1,7 C 72 % 75 % 1024,9 hPa 0,0 l/m 0,0 km/h (0 Bft) SO 145 0 min
16.02.2018 19:35 4,3 C 3,7 C 1,7 C 73 % 75 % 1023,9 hPa 0,0 l/m 0,0 km/h (0 Bft) S-SO 155 0 min
16.02.2018 19:40 4,3 C 3,6 C 1,7 C 73 % 75 % 1023,9 hPa 0,0 l/m 0,0 km/h (0 Bft) S-SO 155 0 min
16.02.2018 19:45 4,4 C 3,6 C 1,7 C 72 % 76 % 1023,9 hPa 0,0 l/m 0,0 km/h (0 Bft) S-SO 150 0 min
16.02.2018 19:50 4,4 C 3,6 C 1,7 C 72 % 76 % 1024,9 hPa 0,0 l/m 1,8 km/h (1 Bft) S-SO 160 0 min
16.02.2018 19:55 4,2 C 3,5 C 1,7 C 72 % 76 % 1024,9 hPa 0,0 l/m 0,0 km/h (0 Bft) O-SO 105 0 min
16.02.2018 20:00 4,0 C 3,4 C 1,7 C 73 % 76 % 1024,9 hPa 0,0 l/m 0,0 km/h (0 Bft) O-NO 65 0 min
16.02.2018 20:05 3,7 C 3,2 C 1,7 C 74 % 77 % 1023,9 hPa 0,0 l/m 0,0 km/h (0 Bft) O-SO 110 0 min
16.02.2018 20:10 3,6 C 3,1 C 1,5 C 75 % 77 % 1023,9 hPa 0,0 l/m 0,0 km/h (0 Bft) SO 130 0 min
16.02.2018 20:15 3,5 C 3,0 C 1,5 C 76 % 78 % 1023,9 hPa 0,0 l/m 0,6 km/h (0 Bft) O-SO 115 0 min
16.02.2018 20:20 3,3 C 2,9 C 1,5 C 76 % 78 % 1024,9 hPa 0,0 l/m 0,0 km/h (0 Bft) SO 145 0 min
16.02.2018 20:25 3,3 C 2,8 C 1,5 C 77 % 78 % 1024,9 hPa 0,0 l/m 1,2 km/h (1 Bft) S-SO 150 0 min
16.02.2018 20:30 3,5 C 2,8 C 1,5 C 76 % 78 % 1024,9 hPa 0,0 l/m 1,2 km/h (1 Bft) O-SO 115 0 min
16.02.2018 20:35 3,2 C 2,8 C 1,5 C 78 % 79 % 1023,9 hPa 0,0 l/m 1,2 km/h (1 Bft) SO 125 0 min
16.02.2018 20:40 3,1 C 2,7 C 1,3 C 79 % 79 % 1023,9 hPa 0,0 l/m 0,6 km/h (0 Bft) O-SO 105 0 min
16.02.2018 20:45 3,0 C 2,7 C 1,3 C 79 % 79 % 1023,9 hPa 0,0 l/m 0,6 km/h (0 Bft) O-SO 120 0 min
16.02.2018 20:50 3,0 C 2,5 C 1,3 C 78 % 79 % 1024,9 hPa 0,0 l/m 1,8 km/h (1 Bft) SO 130 0 min
16.02.2018 20:55 2,5 C 2,4 C 1,3 C 79 % 79 % 1024,9 hPa 0,0 l/m 1,8 km/h (1 Bft) O 90 0 min
16.02.2018 21:00 2,5 C 2,3 C 1,3 C 80 % 79 % 1024,9 hPa 0,0 l/m 0,0 km/h (0 Bft) O 100 0 min
16.02.2018 21:05 2,4 C 2,2 C 1,3 C 82 % 80 % 1024,9 hPa 0,0 l/m 0,0 km/h (0 Bft) SO 130 0 min
16.02.2018 21:10 2,4 C 2,1 C 1,3 C 82 % 80 % 1024,9 hPa 0,0 l/m 4,2 km/h (1 Bft) O 85 0 min
16.02.2018 21:15 2,3 C 2,1 C 1,3 C 81 % 81 % 1024,9 hPa 0,0 l/m 0,6 km/h (0 Bft) SO 140 0 min
16.02.2018 21:20 2,4 C 2,0 C 1,1 C 81 % 81 % 1023,9 hPa 0,0 l/m 0,6 km/h (0 Bft) SO 125 0 min
16.02.2018 21:25 2,1 C 1,8 C 1,1 C 82 % 81 % 1023,9 hPa 0,0 l/m 3,6 km/h (1 Bft) O 85 0 min
16.02.2018 21:30 1,9 C 1,8 C 1,1 C 84 % 81 % 1023,9 hPa 0,0 l/m 1,8 km/h (1 Bft) O 80 0 min
16.02.2018 21:35 1,9 C 1,6 C 1,1 C 84 % 83 % 1023,9 hPa 0,0 l/m 2,4 km/h (1 Bft) O-SO 115 0 min
16.02.2018 21:40 1,8 C 1,5 C 1,1 C 82 % 82 % 1023,9 hPa 0,0 l/m 4,2 km/h (1 Bft) O-SO 105 0 min
16.02.2018 21:45 1,8 C 1,4 C 1,1 C 82 % 82 % 1023,9 hPa 0,0 l/m 2,4 km/h (1 Bft) O-SO 105 0 min
16.02.2018 21:50 1,8 C 1,4 C 1,1 C 82 % 82 % 1023,9 hPa 0,0 l/m 1,2 km/h (1 Bft) O 95 0 min
16.02.2018 21:55 1,7 C 1,3 C 1,1 C 82 % 82 % 1023,9 hPa 0,0 l/m 1,8 km/h (1 Bft) O 90 0 min
16.02.2018 22:00 1,8 C 1,3 C 0,8 C 82 % 82 % 1023,9 hPa 0,0 l/m 2,4 km/h (1 Bft) SO 125 0 min
16.02.2018 22:05 1,8 C 1,3 C 0,8 C 82 % 82 % 1024,9 hPa 0,0 l/m 3,0 km/h (1 Bft) O-SO 120 0 min
16.02.2018 22:10 1,8 C 1,3 C 0,8 C 82 % 83 % 1024,9 hPa 0,0 l/m 3,0 km/h (1 Bft) O 100 0 min
16.02.2018 22:15 1,8 C 1,3 C 0,8 C 82 % 83 % 1024,9 hPa 0,0 l/m 5,4 km/h (2 Bft) O-SO 110 0 min
16.02.2018 22:20 1,7 C 1,3 C 0,8 C 83 % 83 % 1023,9 hPa 0,0 l/m 1,8 km/h (1 Bft) SO 135 0 min
16.02.2018 22:25 1,6 C 1,3 C 0,8 C 83 % 83 % 1023,9 hPa 0,0 l/m 1,8 km/h (1 Bft) SO 130 0 min
16.02.2018 22:30 1,3 C 1,1 C 0,8 C 83 % 81 % 1023,9 hPa 0,0 l/m 0,6 km/h (0 Bft) S-SO 150 0 min
16.02.2018 22:35 1,2 C 0,9 C 0,8 C 84 % 82 % 1023,9 hPa 0,0 l/m 3,6 km/h (1 Bft) S-SO 155 0 min
16.02.2018 22:40 1,2 C 0,8 C 0,8 C 85 % 83 % 1024,0 hPa 0,0 l/m 1,2 km/h (1 Bft) SO 130 0 min
16.02.2018 22:45 1,2 C 0,9 C 0,8 C 85 % 84 % 1023,9 hPa 0,0 l/m 0,6 km/h (0 Bft) O-SO 115 0 min
16.02.2018 22:50 1,0 C 0,8 C 0,8 C 86 % 84 % 1024,0 hPa 0,0 l/m 1,2 km/h (1 Bft) O-SO 115 0 min
16.02.2018 22:55 1,0 C 0,7 C 0,6 C 86 % 84 % 1024,0 hPa 0,0 l/m 1,2 km/h (1 Bft) O 100 0 min
16.02.2018 23:00 1,0 C 0,7 C 0,6 C 87 % 85 % 1024,0 hPa 0,0 l/m 2,4 km/h (1 Bft) O-SO 105 0 min
16.02.2018 23:05 1,0 C 0,7 C 0,6 C 87 % 86 % 1024,0 hPa 0,0 l/m 1,8 km/h (1 Bft) O 100 0 min
16.02.2018 23:10 0,9 C 0,6 C 0,6 C 87 % 85 % 1024,0 hPa 0,0 l/m 0,0 km/h (0 Bft) O 100 0 min
16.02.2018 23:15 0,8 C 0,6 C 0,6 C 87 % 85 % 1024,0 hPa 0,0 l/m 0,0 km/h (0 Bft) O-SO 120 0 min
16.02.2018 23:20 0,8 C 0,6 C 0,6 C 88 % 85 % 1025,0 hPa 0,0 l/m 0,0 km/h (0 Bft) O 100 0 min
16.02.2018 23:25 0,8 C 0,6 C 0,6 C 89 % 86 % 1025,0 hPa 0,0 l/m 0,0 km/h (0 Bft) O-SO 110 0 min
16.02.2018 23:30 0,8 C 0,6 C 0,6 C 88 % 86 % 1025,0 hPa 0,0 l/m 0,6 km/h (0 Bft) O-SO 105 0 min
16.02.2018 23:35 1,0 C 0,6 C 0,4 C 87 % 85 % 1023,0 hPa 0,0 l/m 2,4 km/h (1 Bft) SO 130 0 min
16.02.2018 23:40 1,0 C 0,6 C 0,4 C 86 % 85 % 1023,0 hPa 0,0 l/m 1,8 km/h (1 Bft) S-SO 150 0 min
16.02.2018 23:45 0,9 C 0,5 C 0,4 C 86 % 85 % 1023,0 hPa 0,0 l/m 1,2 km/h (1 Bft) O-SO 115 0 min
16.02.2018 23:50 0,9 C 0,5 C 0,4 C 86 % 85 % 1025,0 hPa 0,0 l/m 1,2 km/h (1 Bft) O-SO 115 0 min
16.02.2018 23:55 0,8 C 0,5 C 0,4 C 86 % 85 % 1025,0 hPa 0,0 l/m 2,4 km/h (1 Bft) S-SO 155 0 min
_ Min-Zeit 23:15 23:45 06:35 15:55 16:05 00:00 - 00:45 - - -
Minimum _ 0,8 C 0,5 C 0,2 C 58 % 62 % 1015,9 hPa - 0,0 km/h (0 Bft) - - -
_ Max-Zeit 15:50 15:40 15:55 00:00 00:00 23:50 07:55 12:30 - - 12:50
Maximum _ 8,4 C 7,7 C 3,1 C 99 % 95 % 1025,0 hPa 0,3 l/m 26,0 km/h
NW (4 Bft)
- - 12 min
Durchschnitt _ 3,8 C 3,3 C 1,4 C 84 % 84 % 1022,2 hPa #0,3 l/m 7,1 km/h (2 Bft) SW - #7:43 h